Flag Weather past 2 weeks in Oakland, California, U.S.A.

Now
67 °F

Mostly cloudy.


Feels Like: 67 °F
Forecast: 57 / 70 °F
Wind: 8 mph from Northwest

Location: Metro Oakland International Airport

Current Time: Oct 30, 2014 at 3:58:43 PM

Latest Report: Oct 30, 2014 at 2:53 PM


Visibility: 10 mi

Pressure: 29.89 "Hg

Humidity: 63%

Dew point: 54 °F

Location of OaklandLocation

Historic Weather in Oakland — Graph

°F

Oakland temperature yesterday

Maximum temperature yesterday: 77 °F (at 4:53 PM)
Minimum temperature yesterday: 51 °F (at 6:53 AM)
Average temperature yesterday: 63 °F

Past Weeks' High & Low Weather Summary

 TemperatureHumidityPressure
High77 °F (Oct 29, 4:53 PM)92% (Oct 16, 5:53 AM)30.18 "Hg (Oct 16, 5:53 AM)
Low47 °F (Oct 27, 5:53 AM)37% (Oct 29, 4:53 PM)27.00 "Hg (Oct 16, 10:20 PM)
Average62 °F73%30.00 "Hg
* Reported Oct 15 1:53 PM — Oct 30 1:53 PM, Oakland, Weather by CustomWeather, © 2014

Note: Actual official high and low records may vary slightly from our data, if they occured in-between our weather recording intervals... More about our weather records

Advertising

Oakland weather history for previous 24 hours

 ConditionsComfort  
Time TempWeatherWind HumidityBarometerVisibility
1:53 PM
Oct 30
67 °FPartly sunny.15 mph68%29.90 "Hg10 mi
12:53 PM68 °FBroken clouds.7 mph63%29.91 "Hg10 mi
11:53 AM67 °FBroken clouds.3 mph66%29.93 "Hg10 mi
10:53 AM66 °FBroken clouds.5 mph70%29.93 "Hg10 mi
9:53 AM65 °FBroken clouds.No wind73%29.94 "Hg10 mi
8:53 AM60 °FPartly sunny.3 mph78%29.94 "Hg10 mi
7:53 AM57 °FMostly cloudy.No wind78%29.93 "Hg10 mi
6:53 AM60 °FPassing clouds.5 mph75%29.93 "Hg10 mi
5:53 AM55 °FPassing clouds.No wind77%29.92 "Hg10 mi
4:53 AM56 °FPassing clouds.No wind75%29.92 "Hg10 mi
3:53 AM56 °FPassing clouds.No wind75%29.93 "Hg10 mi
2:53 AM54 °FClear.No wind77%29.94 "Hg10 mi
1:53 AM58 °FClear.No wind75%29.95 "Hg10 mi
12:53 AM57 °FClear.No wind78%29.96 "Hg10 mi
11:53 PM
Oct 29
59 °FClear.No wind75%29.97 "Hg10 mi
10:53 PM65 °FClear.No wind70%29.98 "Hg10 mi
9:53 PM61 °FClear.No wind70%29.98 "Hg10 mi
8:53 PM64 °FClear.No wind68%29.98 "Hg10 mi
7:53 PM68 °FClear.3 mph65%29.98 "Hg10 mi
6:53 PM69 °FPassing clouds.5 mph61%29.98 "Hg10 mi
5:53 PM72 °FPassing clouds.8 mph49%29.97 "Hg10 mi
4:53 PM77 °FPassing clouds.10 mph37%29.98 "Hg10 mi
3:53 PM74 °FScattered clouds.12 mph45%30.00 "Hg10 mi
Weather by CustomWeather, © 2014

See weather overviewHow to use our weather pages